GFSGBSN_925_spd_276.txt.gz
Wind_Speed
21 22 23 24 24 24 25 25 25 26 27 27 28 29 30 30 31 30 30 29 26 23 22 19 13 10 6 6 7 2 3 1 2 4 8 9 11 11 13 9 9 13 6 3 6 8 9
23 23 24 24 25 24 25 25 26 27 28 28 28 29 30 32 33 32 31 27 23 24 22 16 9 3 4 8 1 1 3 3 4 5 5 7 5 6 8 9 14 7 7 10 11 13 16
22 23 24 24 24 25 26 26 26 28 28 29 29 30 32 34 34 34 32 22 22 18 15 8 4 3 7 11 1 5 5 4 3 4 4 4 5 8 1 7 6 11 9 10 12 16 9
23 23 23 24 25 26 26 27 28 28 29 30 31 32 33 36 37 35 26 19 18 9 7 1 3 2 7 5 5 9 7 8 7 6 6 5 4 7 8 1 7 13 12 13 13 15 11
23 23 23 24 25 26 27 28 28 30 30 32 32 33 35 40 40 29 21 17 6 4 2 3 2 3 7 5 4 2 9 8 7 5 5 4 5 9 8 13 12 15 15 20 12 13 9
23 23 24 25 25 27 28 28 30 31 32 33 34 35 37 41 39 22 18 7 2 2 1 3 3 5 7 1 1 2 5 9 5 5 6 8 6 10 12 15 19 17 21 18 14 15 14
22 23 23 25 26 27 28 29 31 32 34 35 37 36 38 39 34 19 16 3 4 5 6 8 0 5 4 6 4 7 8 11 8 7 11 10 11 16 19 19 19 12 18 19 18 12 16
23 23 23 25 26 27 28 30 31 32 35 37 39 40 39 37 21 14 8 5 5 5 9 12 18 19 17 7 4 9 9 13 11 15 12 9 17 17 9 15 17 17 16 20 11 13 13
22 23 24 25 26 28 29 30 32 33 35 38 43 44 40 32 8 7 10 8 8 2 6 4 5 8 6 13 8 10 14 14 11 15 15 19 5 3 16 16 20 22 20 19 17 10 2
21 22 24 26 27 28 30 31 33 35 37 41 46 48 33 22 3 7 3 8 11 5 4 4 3 2 5 5 8 18 17 10 7 13 13 13 17 11 9 21 19 23 22 15 15 18 13
22 22 22 24 27 28 30 31 34 35 38 43 47 40 23 15 8 3 7 12 7 4 4 3 4 3 4 8 2 11 12 11 14 11 7 7 10 17 21 19 18 19 19 18 18 18 11
23 24 24 24 26 28 30 32 34 36 40 47 50 23 18 10 7 7 15 14 3 3 5 2 2 1 4 10 3 5 11 7 7 14 14 16 3 8 16 19 11 13 14 17 15 15 15
23 24 24 24 26 28 30 32 34 37 41 47 47 14 14 11 11 19 13 4 3 4 3 4 5 5 8 6 9 8 12 18 12 11 16 17 19 16 10 11 17 17 17 11 13 13 20
22 24 24 23 25 28 30 32 34 39 42 46 35 10 12 15 15 12 5 4 5 3 4 7 6 15 6 3 8 13 12 15 20 16 11 11 12 21 18 22 16 24 23 15 22 21 23
22 23 24 24 24 27 30 32 35 39 44 47 28 7 16 23 17 9 4 2 4 5 8 12 15 9 10 4 6 4 16 17 17 18 13 8 11 4 13 18 20 19 22 27 23 22 17
23 23 22 23 24 25 27 30 33 36 41 44 17 6 19 28 13 6 2 1 1 8 13 8 5 4 7 5 6 4 10 8 13 18 19 14 16 11 8 14 22 25 22 21 17 21 25
24 24 21 23 23 24 25 27 30 34 38 35 9 3 26 22 8 2 2 3 4 11 12 6 6 8 7 7 8 8 6 10 13 9 13 21 16 13 11 16 21 16 19 18 20 17 19
24 23 22 22 22 23 23 24 26 28 34 27 9 3 26 19 4 3 3 4 7 9 9 5 6 9 8 9 10 7 5 9 17 13 7 11 9 17 21 15 15 22 25 25 14 26 20
24 24 22 21 21 21 21 22 23 24 26 21 5 4 14 14 4 5 5 2 5 11 9 7 8 7 10 7 7 9 7 7 20 15 13 10 8 15 15 19 16 16 20 22 25 19 23
24 23 23 19 19 19 19 20 19 20 22 13 4 4 4 8 5 6 7 4 7 5 3 9 6 3 12 6 3 8 11 7 21 12 13 9 10 13 16 17 16 19 21 23 22 17 21
24 24 23 21 20 17 17 16 16 17 18 10 5 3 4 4 5 8 7 5 8 7 6 7 3 10 10 6 14 11 7 20 10 6 12 10 8 15 17 21 21 16 20 23 23 27 23
24 25 23 22 19 17 16 15 14 13 13 5 3 3 3 5 6 7 4 5 6 8 7 9 11 13 12 13 15 20 17 14 11 6 14 11 6 14 18 19 21 22 23 20 26 28 26
24 24 24 22 20 17 15 13 11 10 8 2 0 2 3 3 5 5 4 6 10 11 5 6 12 14 16 15 15 19 19 20 21 22 17 10 7 8 12 14 14 21 26 26 25 23 25
24 25 24 23 21 18 15 13 11 8 5 2 3 4 3 6 6 8 12 14 13 12 13 14 13 15 12 16 18 20 22 24 25 25 19 15 13 7 9 12 16 20 18 25 26 25 24
26 26 25 23 22 20 16 15 14 11 9 7 5 4 3 6 9 13 14 13 13 14 15 15 15 13 13 15 12 11 8 13 23 27 26 25 18 10 8 13 19 18 20 19 24 27 23
27 27 26 23 23 22 19 17 16 16 14 12 12 10 5 6 9 9 14 16 15 14 14 16 11 13 12 9 7 10 6 11 6 6 22 24 23 15 11 14 17 16 22 6 9 17 18
29 28 26 24 24 22 20 19 18 18 19 18 11 13 9 6 11 12 10 13 12 13 10 15 13 8 10 7 8 12 15 14 8 12 4 10 15 20 19 15 15 11 11 7 14 8 12
29 28 27 25 24 24 22 21 20 20 20 19 15 16 13 7 13 20 20 18 13 10 13 14 8 8 7 7 6 6 7 6 9 18 21 16 5 12 17 20 24 10 11 13 12 13 21
29 28 27 27 25 25 24 23 23 23 22 20 19 17 19 17 12 25 30 32 33 33 17 16 15 15 4 5 6 4 7 8 13 11 13 12 1 6 6 10 12 11 11 8 14 16 20

GFSGBSN_925_spd_279.txt.gz
Wind_Speed
23 23 23 24 25 26 26 26 28 27 28 29 29 30 30 31 32 32 31 30 25 21 21 20 16 10 8 7 13 2 1 2 3 7 13 13 14 16 20 18 19 13 20 6 3 9 13
22 23 24 25 26 27 27 27 28 29 29 30 31 31 32 32 33 34 33 30 23 20 19 16 11 3 7 14 2 2 3 7 8 8 12 13 12 12 18 16 17 14 21 10 11 11 7
22 23 24 25 26 27 27 28 29 30 31 31 32 33 33 34 36 36 34 25 20 19 12 10 3 4 9 16 4 6 6 9 9 10 9 10 10 10 7 16 16 13 14 10 13 14 10
23 23 25 26 26 27 27 29 30 31 32 33 33 34 36 38 38 35 27 20 18 11 7 4 0 6 8 4 8 10 12 10 11 10 9 7 9 13 18 15 6 15 17 16 19 16 13
23 23 24 25 26 27 28 29 31 32 33 34 35 36 39 42 40 29 23 18 13 5 4 2 3 7 8 2 9 7 11 12 12 11 11 7 10 14 14 17 14 16 19 23 19 20 12
23 23 24 26 26 27 28 29 31 32 35 36 37 39 40 42 35 21 20 10 8 6 3 6 11 7 8 6 1 5 8 13 9 10 10 13 9 12 16 16 21 20 22 22 25 18 20
23 24 24 25 27 27 28 30 31 33 35 37 39 41 41 38 27 18 20 7 6 7 12 12 1 11 2 2 6 9 9 12 13 10 15 16 14 19 22 23 24 25 25 26 27 21 22
22 23 24 26 27 28 29 31 32 34 36 38 44 44 43 30 18 13 10 5 8 6 11 15 19 19 19 7 9 11 10 12 15 16 16 16 19 19 20 22 22 26 27 24 22 16 18
24 25 24 26 27 29 30 31 33 35 37 41 46 48 32 26 6 8 9 9 11 8 7 5 9 11 12 12 11 14 15 17 14 17 17 19 17 14 22 21 19 22 26 21 25 14 12
25 25 27 26 27 29 30 31 34 36 39 44 47 43 27 17 4 10 4 12 13 3 5 9 6 4 6 7 8 24 17 16 15 17 18 19 17 17 13 20 19 23 22 24 26 15 15
25 26 26 26 27 28 30 32 34 36 40 45 47 31 20 15 10 6 11 13 10 3 4 4 7 4 3 10 5 11 21 17 18 16 12 17 13 16 22 22 19 24 22 22 26 23 15
23 24 26 26 27 28 30 32 34 37 41 45 48 22 19 12 7 10 15 13 4 3 6 4 3 2 7 11 11 5 10 16 11 20 18 19 13 14 17 16 20 19 19 21 22 21 18
23 23 25 27 28 29 31 32 34 39 43 46 44 14 13 13 12 19 14 6 4 4 3 3 4 4 9 11 9 10 13 16 14 13 19 20 22 21 13 16 16 18 16 14 18 17 17
24 25 24 26 27 28 30 32 35 40 44 47 30 10 9 9 18 13 9 5 4 1 5 9 10 14 15 10 10 13 15 15 21 22 15 17 19 23 20 24 21 24 20 15 23 18 22
24 24 24 24 26 27 29 32 35 39 44 42 25 6 13 19 18 10 7 1 3 9 10 11 17 15 14 12 5 10 13 17 17 19 20 16 21 19 13 20 20 24 22 26 26 24 21
24 25 24 23 24 26 29 30 33 37 43 38 22 8 16 25 17 9 5 2 2 6 13 11 8 6 11 10 4 11 13 13 12 17 18 21 22 19 8 14 20 26 21 19 17 26 28
24 25 25 24 24 25 26 29 31 34 40 35 12 5 20 22 15 6 2 2 5 8 9 8 13 13 13 14 13 13 13 10 15 14 17 16 17 22 17 21 19 19 21 21 19 20 18
24 25 25 26 23 23 24 25 28 32 37 28 13 4 22 24 4 3 1 3 5 9 6 8 8 10 10 14 14 14 15 11 15 16 13 12 8 17 27 19 17 23 24 25 16 22 18
24 24 25 25 25 23 22 22 24 26 29 24 7 4 14 14 4 4 6 3 4 8 9 6 5 5 12 13 9 12 16 4 14 15 14 13 7 14 19 18 23 21 24 22 23 21 23
24 24 24 25 24 23 20 19 19 23 25 17 5 4 5 7 6 6 7 4 6 4 5 9 6 8 11 13 13 11 16 8 10 16 13 13 11 16 16 21 17 18 23 23 24 17 20
23 23 24 25 24 22 20 17 15 18 20 15 6 3 3 4 4 7 6 4 7 6 5 10 2 4 7 7 15 18 12 18 18 15 9 10 11 17 20 25 25 24 24 25 26 26 24
23 23 23 24 23 22 19 16 13 13 17 6 3 3 7 10 6 7 0 5 5 7 8 9 8 10 11 13 14 20 21 18 15 12 9 8 10 16 20 21 22 25 25 25 22 29 28
23 24 24 24 23 21 19 15 13 8 10 5 4 3 4 7 6 5 5 5 9 11 5 7 9 13 14 13 15 19 19 20 21 22 20 19 13 13 20 19 23 24 27 29 24 22 22
24 24 25 24 23 21 19 17 13 10 7 8 7 4 3 7 9 8 10 12 14 12 14 15 14 16 14 14 16 20 22 24 26 26 23 23 19 13 15 17 18 15 23 26 28 27 26
25 26 26 24 24 22 19 18 15 14 11 13 9 5 3 7 9 14 14 12 13 14 15 17 16 13 11 14 16 16 16 18 22 27 27 25 20 14 15 15 22 27 19 19 24 29 25
26 26 26 26 23 22 20 19 17 16 16 15 17 14 7 5 10 10 9 14 14 13 14 15 14 10 10 10 11 16 11 19 9 11 20 23 24 16 13 18 24 25 22 25 24 18 16
27 27 27 26 24 23 21 20 18 17 18 19 20 18 10 7 13 17 13 9 9 13 12 16 17 14 11 10 12 15 16 17 18 20 17 13 17 22 20 19 18 20 18 25 18 7 19
28 27 28 27 25 23 22 22 21 20 20 21 22 20 21 7 16 23 22 20 14 11 13 15 15 11 11 13 11 13 13 14 14 18 20 20 8 8 20 20 22 8 19 20 4 9 16
29 29 28 27 25 25 24 23 23 23 22 23 26 25 25 19 10 16 20 21 24 28 17 17 22 24 6 6 6 6 10 9 16 15 15 14 11 12 3 5 13 18 9 11 11 9 14

GFSGBSN_925_spd_285.txt.gz
Wind_Speed
27 27 27 28 29 29 30 31 31 32 32 33 33 34 35 35 34 33 32 30 27 21 18 16 15 14 5 3 9 7 4 3 3 4 7 7 6 6 7 5 9 11 15 15 14 10 2
27 27 28 29 30 30 31 32 33 33 34 35 35 36 39 38 36 35 32 29 22 19 17 15 11 8 1 5 9 8 4 5 7 12 15 11 7 9 9 9 7 7 12 14 9 7 4
27 27 28 29 30 31 33 33 34 35 36 37 38 42 42 40 38 35 32 23 20 18 15 10 7 3 5 16 7 5 8 7 10 15 6 17 7 4 6 8 8 10 12 11 11 6 6
27 27 28 29 29 31 33 34 35 36 38 39 41 46 47 43 37 35 24 21 20 15 11 6 5 4 8 13 9 14 12 15 12 13 12 14 12 4 2 7 10 7 6 6 8 4 6
27 27 28 29 30 32 33 35 36 37 39 41 46 48 49 40 38 27 25 26 18 10 6 5 3 4 8 10 8 20 14 13 16 18 13 13 6 3 6 3 6 4 5 7 9 6 5
27 29 29 29 30 32 33 35 37 39 41 45 49 49 49 38 33 24 31 19 5 7 4 5 9 4 8 4 5 8 8 18 8 5 5 5 2 3 3 2 9 4 5 7 6 12 6
27 29 30 30 31 33 34 35 37 40 43 46 49 50 46 36 27 23 32 7 6 2 5 8 5 6 4 1 2 3 9 8 5 4 6 6 3 6 10 12 11 11 10 10 7 12 6
27 28 29 30 32 32 33 35 37 40 42 46 49 51 42 33 22 18 20 8 9 5 10 12 21 20 30 20 7 7 11 6 6 8 5 6 8 11 13 13 10 14 16 16 12 14 7
28 29 29 29 31 31 33 35 37 40 43 47 49 50 36 34 12 14 15 21 15 15 4 10 9 7 8 12 11 13 6 4 7 8 9 9 9 15 15 13 10 7 7 9 11 16 13
29 29 30 30 31 32 34 35 37 39 43 47 50 47 34 34 4 25 5 26 17 12 3 4 6 2 5 2 4 13 22 9 7 13 8 11 9 14 12 8 9 10 11 11 8 8 7
28 30 30 31 32 33 35 37 38 40 44 48 51 43 28 15 16 8 21 25 17 3 4 9 5 4 3 6 7 0 17 7 10 9 6 8 6 8 10 7 8 7 6 5 4 7 4
29 30 31 32 33 34 36 39 42 45 47 49 51 35 25 17 18 17 23 20 11 2 4 3 4 5 4 8 4 5 2 6 3 7 11 8 9 6 5 8 8 3 5 6 3 2 2
28 29 30 32 34 35 37 40 45 47 50 53 50 27 14 15 9 24 22 8 1 3 10 10 11 10 14 8 9 7 6 5 5 1 5 10 15 9 9 8 5 3 3 2 3 2 7
27 29 30 31 33 35 38 41 45 48 51 56 45 16 11 3 21 20 12 1 3 6 6 9 12 13 5 4 6 12 5 6 7 7 9 7 6 13 11 12 8 8 7 5 6 6 11
27 28 29 30 32 35 37 41 43 47 51 56 38 21 7 28 23 16 2 2 1 8 7 11 12 5 5 7 10 12 5 6 8 14 4 5 7 13 9 10 10 8 11 9 8 8 4
26 27 29 30 31 33 37 39 42 45 49 52 33 9 7 34 25 3 1 1 4 8 10 8 6 10 7 15 12 15 5 13 8 14 10 7 6 6 10 8 8 15 9 7 4 4 7
26 27 28 29 30 32 35 37 39 43 46 47 16 4 24 31 10 3 2 4 5 9 12 9 8 8 10 9 12 8 11 10 16 15 10 10 4 6 6 1 5 9 2 3 5 5 6
25 26 27 28 29 30 32 35 37 39 42 37 13 4 27 29 4 2 2 6 3 9 11 7 6 7 6 11 6 7 8 8 15 15 8 8 3 4 6 14 11 8 11 5 5 7 5
25 26 27 27 28 28 30 32 34 36 34 28 6 3 14 17 3 4 6 8 3 7 7 7 5 9 6 5 5 9 8 12 20 12 7 8 4 4 7 4 5 5 9 17 14 4 9
25 26 25 26 27 27 28 28 30 32 31 24 3 4 4 4 4 6 6 6 7 7 10 8 6 7 6 8 7 8 12 11 15 17 15 7 3 5 5 10 12 13 20 17 9 5 6
25 25 25 25 25 25 26 26 25 28 28 14 3 3 5 4 6 13 6 4 9 4 8 7 7 11 7 4 7 3 13 12 16 12 13 9 4 8 11 13 14 19 18 17 16 13 8
25 24 24 24 24 24 25 24 22 22 24 5 2 3 4 6 9 9 6 3 9 5 6 6 4 8 7 5 7 8 8 8 4 7 11 9 5 9 14 11 12 16 20 21 17 17 16
25 25 25 24 23 23 23 22 20 17 15 5 9 8 1 5 7 6 6 12 12 8 5 7 8 6 6 9 7 5 4 5 9 14 13 5 2 4 8 9 11 13 18 16 18 15 16
26 25 24 24 23 22 22 21 19 16 12 9 14 10 2 4 4 8 15 13 10 12 7 7 6 7 6 9 8 6 8 11 14 16 13 11 7 5 7 8 4 11 7 13 17 17 15
26 25 25 24 24 23 22 20 19 16 15 13 16 7 2 4 5 10 12 12 11 8 7 7 7 5 11 7 4 5 7 11 6 14 18 17 11 5 2 6 13 19 13 8 8 20 19
26 26 26 25 24 23 22 21 19 17 16 15 17 13 6 3 6 12 10 7 9 9 6 8 7 9 4 2 2 1 4 12 6 8 9 15 11 10 3 4 6 3 7 9 14 15 15
27 26 26 25 24 23 22 21 20 18 17 16 18 16 7 5 5 10 9 7 5 5 5 7 6 6 5 0 0 3 11 10 10 11 13 8 8 8 11 11 11 10 12 13 8 3 13
26 26 26 25 24 23 23 22 22 21 20 19 24 18 13 4 9 12 16 12 10 8 9 5 6 4 3 3 3 3 6 8 10 14 14 14 6 3 6 9 10 16 9 6 5 10 13
25 25 25 24 25 24 24 24 23 22 23 22 26 25 21 14 7 21 27 27 25 23 12 9 10 9 3 2 1 0 2 5 15 15 13 7 4 3 4 5 18 20 5 5 2 7 3

GFSGBSN_925_spd_291.txt.gz
Wind_Speed
26 26 27 28 29 29 30 31 32 32 32 33 33 34 35 35 35 33 33 31 27 22 18 16 13 12 3 2 10 6 6 6 7 9 7 5 4 5 4 4 0 5 5 3 3 2 7
27 28 28 30 30 31 31 32 33 34 35 35 36 37 38 38 36 35 32 29 25 23 18 15 12 6 2 5 5 5 10 9 6 8 6 6 5 5 3 3 3 3 5 5 5 5 7
28 28 29 30 31 31 32 34 35 36 37 37 38 39 41 40 37 34 30 29 28 28 21 14 8 3 3 15 3 3 10 8 7 10 5 6 5 5 2 3 2 3 4 7 5 5 6
28 29 29 30 31 33 34 35 36 37 38 39 40 42 46 45 38 32 29 30 30 23 13 7 6 6 8 8 8 16 16 16 13 13 10 8 6 3 3 2 6 2 2 3 4 4 6
28 28 30 31 32 34 35 36 37 38 40 41 43 45 47 46 37 30 28 30 12 5 6 8 7 4 9 8 9 16 21 8 12 12 9 6 2 3 5 4 5 7 3 3 6 5 5
28 29 30 31 33 34 36 37 38 40 42 44 45 47 49 46 36 27 29 12 7 6 7 4 1 1 7 1 4 5 14 20 3 1 3 4 4 4 3 4 6 5 3 4 4 3 5
28 29 30 32 34 35 37 38 40 42 44 46 48 49 49 44 35 21 25 4 6 4 5 6 3 4 4 14 4 1 5 8 4 3 5 1 4 7 12 7 5 3 2 4 3 5 3
29 31 32 34 35 36 38 40 42 46 47 48 51 51 50 36 26 19 22 5 4 7 10 9 14 13 21 5 5 4 3 5 5 6 3 2 7 11 6 5 5 4 4 6 7 7 7
29 31 32 34 35 37 38 40 43 46 49 51 53 54 46 32 12 16 5 14 19 12 5 9 6 6 6 11 7 7 5 4 4 7 7 7 6 7 7 4 5 5 5 5 8 6 2
29 30 32 33 36 37 39 41 43 46 50 52 55 52 39 27 5 19 5 26 19 3 3 5 5 6 6 8 4 10 12 6 3 10 7 6 8 5 5 6 8 7 9 10 6 3 3
28 29 31 33 35 37 40 43 46 48 51 53 57 50 28 13 11 9 18 26 15 4 3 3 2 5 2 7 0 4 7 4 8 6 6 7 4 7 5 10 7 9 5 10 6 4 3
28 30 31 33 35 38 40 44 48 50 52 54 58 45 20 10 12 19 30 21 2 2 5 7 7 7 3 4 2 5 3 3 4 6 2 7 2 4 9 5 6 2 1 6 5 4 2
28 29 31 33 35 38 40 44 48 50 52 56 59 35 12 12 12 33 23 3 0 3 10 8 5 8 6 5 6 8 5 9 5 2 5 2 5 3 5 4 3 4 5 1 1 1 5
27 29 30 32 34 36 39 42 47 50 53 57 57 24 10 17 38 24 6 1 1 6 5 6 5 12 4 8 5 8 4 5 8 6 1 5 4 7 1 8 7 6 9 5 6 4 2
27 28 29 31 33 35 38 42 46 50 52 57 48 23 12 35 31 9 1 4 3 6 8 10 9 6 7 6 6 4 8 11 5 9 4 4 4 5 4 1 9 3 4 8 5 0 3
26 27 29 30 31 33 36 40 45 48 51 53 30 13 15 47 16 2 2 5 4 8 7 6 7 10 7 9 8 6 6 13 9 8 6 2 4 2 5 3 5 3 4 3 2 6 4
25 27 28 29 30 31 34 37 42 47 49 46 12 4 30 40 8 5 3 4 4 12 10 10 8 5 7 6 5 5 12 6 14 10 5 5 2 6 4 6 3 5 3 3 3 4 6
25 26 26 27 28 30 32 34 39 43 46 36 10 4 29 27 6 3 3 11 6 11 11 8 7 9 6 8 7 4 5 9 14 9 5 3 2 3 4 5 7 7 4 4 3 2 1
25 25 25 26 27 29 30 32 34 38 39 23 5 3 15 19 5 5 7 10 10 9 12 6 11 8 6 6 4 9 6 9 12 9 8 6 2 3 2 4 6 6 6 5 3 1 4
23 24 24 25 26 27 28 28 30 33 35 19 3 5 4 4 1 3 6 8 13 10 10 6 7 8 8 8 6 6 7 8 6 7 17 6 2 2 1 2 4 3 6 5 4 1 4
23 23 24 24 24 25 25 25 26 28 31 13 4 1 2 4 6 10 6 7 15 11 9 14 5 9 7 7 8 9 7 5 5 8 6 4 2 4 5 10 8 9 7 5 5 5 4
23 23 23 23 23 23 22 23 23 23 24 8 3 3 4 4 5 7 7 10 14 15 7 11 9 6 6 4 3 6 8 6 3 4 3 1 3 3 5 9 6 9 9 6 7 9 12
22 22 23 22 22 21 21 20 19 18 15 5 5 3 2 4 4 4 3 8 9 9 4 8 8 5 2 3 3 4 5 6 7 5 3 3 2 1 3 7 5 6 10 12 2 2 5
22 22 22 22 21 20 20 19 17 15 13 4 3 2 3 3 2 5 11 10 8 8 6 6 7 4 2 5 5 5 6 8 8 9 8 6 4 3 3 4 1 2 8 5 4 8 9
21 22 22 22 21 20 19 18 16 14 11 9 3 1 1 3 5 10 7 5 8 8 5 9 7 3 6 4 3 4 3 4 3 4 5 12 8 1 2 5 8 2 7 5 3 2 8
22 22 22 21 21 19 19 17 15 14 12 11 9 5 3 2 4 3 4 9 7 5 5 4 3 11 1 1 3 2 2 4 4 6 2 7 5 6 4 4 4 4 9 9 6 3 8
23 22 22 21 21 20 19 18 18 16 14 11 9 10 7 3 5 6 4 4 3 3 4 4 4 3 1 2 3 3 7 4 5 5 3 1 3 6 6 4 3 9 13 8 5 2 8
23 23 23 23 22 21 20 20 19 17 17 14 17 15 13 4 9 15 13 10 7 6 9 3 4 3 1 3 3 4 4 6 8 9 5 5 3 2 3 5 9 6 8 5 2 3 7
24 25 24 24 23 22 22 21 20 19 19 18 15 16 16 12 7 20 27 33 34 33 8 6 7 6 4 3 3 2 2 2 8 8 6 6 6 4 7 3 2 7 5 4 4 7 11

GFSGBSN_925_spd_294.txt.gz
Wind_Speed
28 28 29 30 31 32 32 33 33 34 35 35 36 37 37 39 38 37 35 32 28 26 23 18 15 11 3 1 10 9 3 8 10 11 9 5 5 5 6 5 4 4 4 4 4 1 5
28 29 30 31 32 33 34 34 35 36 37 37 38 38 39 40 39 38 36 31 28 29 28 21 12 5 2 5 6 7 8 9 9 10 8 7 6 6 4 2 4 6 4 4 5 6 4
28 29 31 32 33 34 35 36 37 38 39 39 40 42 42 40 40 37 34 29 33 33 26 19 10 5 3 15 5 5 7 10 9 9 5 7 5 4 4 2 2 2 4 4 5 6 7
28 29 30 31 32 33 35 36 37 39 39 40 41 44 46 44 41 38 30 30 32 21 16 9 10 7 8 7 10 25 16 13 11 10 9 6 6 3 3 4 5 2 3 3 3 6 4
28 29 30 31 33 34 35 37 38 40 41 42 43 46 47 46 40 33 28 30 13 8 5 10 9 5 9 6 7 15 20 9 11 10 9 2 3 2 4 6 4 6 3 4 4 2 4
27 29 30 32 33 35 36 38 39 41 43 45 46 48 47 47 39 27 26 15 3 3 5 4 1 2 8 1 5 3 15 22 3 6 3 4 4 3 3 4 6 6 4 3 2 4 3
28 30 31 32 34 35 37 39 40 43 45 47 48 51 52 43 35 23 29 5 5 3 5 6 3 5 4 15 6 4 7 11 4 4 6 2 4 8 12 6 5 5 3 1 3 4 1
28 29 31 33 34 36 38 39 41 45 47 48 50 52 52 35 23 22 16 6 3 8 11 9 14 14 23 5 5 3 14 7 6 6 5 3 9 9 4 5 5 3 3 3 5 6 5
29 31 32 33 35 36 39 41 43 47 50 51 54 56 48 31 11 23 5 10 21 8 6 8 6 5 5 11 7 6 8 5 6 6 7 7 4 9 8 5 7 4 6 5 6 2 2
29 31 32 34 35 38 40 42 43 47 51 52 56 57 45 26 5 20 4 28 27 3 4 6 4 5 4 5 5 9 7 6 2 11 8 5 6 6 3 4 6 4 9 7 5 3 3
28 30 32 34 36 38 41 43 45 49 52 54 57 55 33 11 12 10 21 34 18 3 3 6 2 3 1 5 1 1 3 4 7 7 7 7 6 6 5 7 8 8 6 8 5 5 2
28 30 32 35 36 39 41 46 48 50 53 56 58 46 21 10 12 20 34 22 0 2 5 6 6 7 4 5 4 7 4 8 2 5 1 8 2 6 10 5 10 3 5 6 4 4 1
27 30 32 34 35 37 40 45 48 50 54 58 59 34 11 15 13 36 21 3 1 3 11 10 6 9 5 6 7 9 5 13 5 3 5 1 3 2 3 4 2 4 6 2 1 0 5
26 28 30 32 34 35 38 44 48 50 54 58 57 25 10 23 39 22 5 2 3 8 6 8 7 9 5 10 6 9 4 6 8 7 3 5 2 7 3 8 7 6 8 5 6 4 5
26 28 29 31 32 34 37 42 47 50 54 57 48 21 18 40 27 8 1 4 0 6 8 11 6 6 8 8 7 5 9 11 6 10 4 3 3 5 2 1 9 5 5 6 6 2 3
25 27 29 30 31 34 37 40 45 49 52 53 30 14 21 47 17 3 4 6 5 11 7 7 8 12 11 12 10 5 7 11 9 6 7 4 3 3 5 1 4 5 5 4 2 6 5
25 26 27 28 30 32 35 38 42 46 50 46 11 4 35 37 13 7 4 4 6 14 8 9 10 7 7 8 12 6 13 3 14 10 6 6 2 4 3 6 3 5 3 4 5 4 6
24 24 26 27 29 30 32 34 39 43 45 35 9 4 33 25 8 3 4 10 11 16 10 9 6 9 6 11 9 6 6 10 14 9 5 4 3 3 1 2 5 5 3 3 4 5 1
23 24 25 26 27 28 29 31 34 39 39 22 4 3 16 21 5 5 7 10 11 17 16 7 12 10 6 7 5 9 6 10 12 10 7 6 3 3 2 1 5 6 4 4 1 1 3
22 23 24 25 25 26 27 28 30 32 34 17 3 5 4 5 1 3 5 11 12 10 14 9 10 9 8 9 8 6 6 9 5 9 17 5 2 3 1 3 3 4 6 7 4 1 1
22 22 23 24 24 24 24 25 26 28 29 11 4 1 2 4 6 8 5 9 14 12 7 15 7 12 8 7 6 6 7 7 7 6 6 4 3 5 7 5 4 5 8 5 3 4 2
22 21 22 22 22 22 22 23 23 23 22 9 3 3 4 3 6 6 7 10 13 13 5 7 9 13 5 3 2 6 7 6 4 3 7 2 2 4 5 9 5 6 5 5 5 5 7
21 20 21 21 21 21 20 20 19 18 14 6 4 2 2 4 4 4 2 8 8 8 4 8 6 6 5 3 4 7 6 6 8 8 2 2 2 1 2 5 7 7 4 8 4 1 2
20 20 20 20 20 19 19 18 17 14 11 4 0 1 2 3 3 4 10 11 6 7 7 10 5 4 4 7 6 5 6 9 8 8 8 4 3 3 2 1 0 2 6 1 9 6 6
21 21 21 20 20 19 18 17 15 14 11 6 4 2 2 3 5 10 5 3 7 10 5 7 10 5 5 5 3 5 3 4 3 4 4 11 8 3 3 5 6 2 4 4 3 3 6
22 22 21 20 20 19 18 17 16 15 13 8 8 7 4 1 4 6 3 5 5 3 3 4 3 6 2 1 1 3 3 2 3 5 3 5 5 5 3 3 5 1 5 3 3 4 4
22 22 21 21 21 20 19 18 18 16 15 11 9 9 7 4 5 5 4 4 4 2 3 6 5 3 2 2 2 4 6 4 4 5 3 3 3 7 6 4 4 1 5 4 6 2 2
23 22 22 22 22 21 21 20 19 18 16 13 15 16 13 3 5 11 7 11 5 3 7 2 4 4 2 4 3 4 4 6 7 8 4 7 4 3 4 5 8 4 0 1 2 2 3
23 23 23 23 23 22 22 22 22 21 19 16 14 19 19 13 9 21 27 27 30 28 12 12 9 4 4 2 2 2 2 2 5 6 5 9 7 4 7 5 2 3 4 6 5 4 5

GFSGBSN_925_spd_300.txt.gz
Wind_Speed
27 27 28 29 29 30 31 32 34 35 35 36 36 36 37 37 36 35 34 31 26 25 25 24 19 12 6 8 14 7 3 13 18 18 21 17 17 17 17 14 16 19 19 17 18 10 13
26 27 28 30 31 32 33 33 34 36 36 37 38 39 39 39 38 36 33 29 27 32 29 23 13 8 8 13 7 9 8 14 17 19 17 16 11 15 10 14 18 11 21 16 14 17 15
27 28 29 30 31 32 32 33 34 36 37 38 38 39 40 40 38 34 32 31 31 32 19 14 8 12 12 20 3 4 10 15 15 20 13 16 10 13 8 9 12 15 14 18 16 14 13
27 28 28 29 30 32 32 33 34 35 37 38 39 41 42 41 35 30 33 32 32 13 13 6 10 11 9 8 12 22 10 13 13 16 11 13 12 13 11 3 8 14 15 17 19 18 17
27 28 29 30 31 32 32 34 35 37 39 41 45 48 45 43 33 29 31 33 10 8 6 11 7 6 9 4 10 15 25 13 17 16 11 11 12 11 10 13 11 12 14 20 17 16 19
27 29 30 31 32 33 34 35 37 39 42 45 48 51 47 37 31 27 29 22 7 3 2 4 3 5 8 3 9 6 16 21 16 15 13 13 11 12 14 15 17 15 17 10 16 17 18
27 29 30 31 32 33 35 36 38 43 44 46 48 50 41 34 29 26 24 10 6 5 7 10 19 18 18 10 5 10 10 23 19 18 18 20 17 22 25 20 15 9 14 14 11 6 13
27 28 30 31 32 34 35 37 39 44 45 46 50 49 34 32 21 22 15 8 9 9 15 21 25 24 34 28 11 11 13 19 21 23 23 15 24 22 18 19 16 12 14 12 6 9 7
27 28 30 31 32 34 36 39 41 47 48 48 51 47 28 34 12 17 10 14 16 7 7 12 7 9 7 13 13 16 16 24 24 26 28 23 12 21 17 17 19 18 15 14 11 8 13
27 28 29 31 33 34 37 39 42 48 50 50 52 41 23 29 6 20 6 23 16 2 5 12 3 4 4 6 7 23 15 18 16 27 21 23 9 17 21 23 19 19 16 14 11 8 11
27 28 29 31 33 35 38 41 46 50 52 53 51 36 23 21 12 11 18 24 11 5 6 16 15 7 24 7 14 4 6 17 17 17 22 17 19 17 24 24 21 16 11 15 12 13 6
26 27 29 30 32 36 39 43 47 50 52 54 46 26 22 17 14 15 25 17 3 4 4 12 14 22 16 12 11 9 8 5 5 12 18 18 8 21 18 15 19 7 13 10 8 9 11
26 27 28 30 32 35 38 43 47 49 52 54 35 12 18 14 17 28 17 4 3 5 19 16 21 21 17 15 16 15 6 10 5 11 14 18 13 10 12 17 20 19 19 9 10 10 10
25 26 27 29 31 33 38 42 46 48 51 48 25 9 22 14 26 16 6 2 9 16 16 19 21 11 12 21 15 20 7 10 15 14 10 15 18 16 15 22 17 26 22 9 15 15 13
23 24 26 28 30 32 36 41 45 47 49 39 19 11 30 34 26 9 3 11 8 14 19 18 16 9 11 16 13 8 12 13 12 18 9 6 15 9 6 10 17 23 20 15 2 4 11
22 23 25 27 28 30 34 38 43 46 48 32 11 9 31 29 19 7 8 9 9 14 13 13 14 13 13 14 10 10 15 16 15 20 12 6 8 4 11 9 12 15 18 12 9 13 11
21 22 24 26 27 29 31 35 40 44 46 26 9 4 33 25 13 9 7 6 6 16 15 13 14 10 10 11 10 7 11 5 17 20 12 11 5 7 7 12 20 11 16 16 14 11 14
20 21 22 24 25 27 29 32 36 40 44 19 8 4 31 21 12 5 8 6 11 15 16 9 13 10 13 12 11 6 9 9 12 14 9 11 5 6 4 6 3 6 14 21 12 19 12
19 20 21 22 23 25 26 29 33 36 35 11 3 4 18 18 8 8 7 12 6 15 17 13 14 12 13 12 3 8 9 9 13 10 11 9 6 4 7 3 3 2 3 4 6 6 20
18 19 20 20 20 22 24 26 28 32 31 9 4 4 5 9 8 10 9 10 11 6 8 13 11 10 15 9 8 7 11 9 15 8 12 3 4 5 5 9 8 3 3 5 8 12 14
17 19 19 20 20 20 20 23 24 27 26 7 5 3 4 5 8 8 7 8 12 11 8 10 7 15 14 9 12 7 15 16 14 4 13 9 6 4 8 12 11 10 10 7 3 4 8
17 19 18 19 19 19 19 19 20 22 19 12 3 4 5 3 7 8 6 8 10 11 7 10 13 16 14 13 10 16 16 13 8 7 14 9 4 8 8 3 8 14 14 9 7 6 4
16 18 18 18 18 18 17 16 16 15 13 7 4 1 3 3 6 6 5 7 9 10 3 9 15 17 14 11 13 16 16 16 17 18 13 8 6 5 5 5 9 11 10 11 8 5 6
17 18 17 17 17 16 16 15 14 12 7 3 1 2 2 4 6 7 12 11 11 10 13 15 14 12 10 13 16 17 18 17 16 14 11 9 7 4 6 8 7 4 2 5 7 3 3
17 18 17 17 17 16 15 15 14 12 8 3 4 3 2 5 9 13 7 13 13 13 14 13 12 10 8 14 13 11 9 9 5 8 9 13 9 4 4 6 12 10 3 2 5 9 5
18 18 18 18 17 16 17 16 15 14 11 8 9 9 5 5 5 9 15 12 12 13 12 10 11 10 14 9 9 10 7 10 5 3 7 10 11 7 6 6 5 5 2 2 2 9 10
19 18 18 19 18 17 17 17 16 15 14 12 11 12 8 6 13 14 9 13 13 10 10 14 8 8 10 10 11 13 15 16 13 11 7 9 11 13 11 10 7 4 3 1 6 2 5
19 18 19 19 19 18 18 18 18 17 16 16 17 16 16 6 17 25 24 18 13 11 12 14 11 6 7 6 7 7 8 11 12 17 15 13 8 10 11 15 15 5 4 9 8 7 5
20 20 19 20 19 18 17 17 17 18 17 16 12 15 16 12 10 27 26 20 26 26 15 12 13 18 6 6 6 5 10 9 14 14 13 15 16 12 8 8 3 2 8 3 4 2 1

GFSGBSN_925_spd_303.txt.gz
Wind_Speed
27 28 28 29 29 29 30 30 31 31 32 33 34 35 36 36 35 33 30 29 29 28 28 27 19 14 9 10 19 15 9 2 14 24 28 24 24 22 24 22 22 23 25 24 23 23 18
27 27 27 28 28 28 29 30 31 32 33 33 34 35 36 36 35 33 30 32 32 34 27 20 14 8 11 18 11 10 10 9 14 24 25 25 19 22 20 23 20 21 21 21 23 24 17
26 26 26 27 28 29 30 31 32 33 34 35 36 38 37 36 35 31 30 30 35 25 16 15 9 11 15 23 9 7 10 18 18 22 19 24 23 17 19 14 22 18 18 17 25 20 24
25 26 27 28 29 30 31 32 33 35 37 38 39 43 41 36 36 31 33 32 28 14 15 12 4 10 9 7 12 22 18 17 23 22 24 19 19 16 20 15 8 21 20 21 22 24 19
25 26 28 29 30 31 32 33 34 37 38 41 44 43 37 34 35 25 32 29 19 12 11 3 4 8 11 3 10 14 19 23 21 21 23 16 16 19 20 18 14 16 18 25 23 26 22
26 27 29 30 31 32 33 34 37 40 40 43 46 42 34 32 31 27 26 30 14 5 4 8 10 8 11 8 13 18 15 24 18 19 19 17 13 17 19 18 20 23 23 20 23 21 23
26 28 29 30 31 33 34 36 38 42 42 43 44 40 30 34 24 25 28 16 11 4 22 12 22 26 30 36 31 18 18 18 24 22 26 25 19 25 30 27 24 21 21 23 18 14 23
26 28 30 31 32 34 35 37 40 44 43 45 46 37 27 36 16 19 16 14 14 10 13 21 22 18 20 16 20 21 25 16 25 28 27 21 30 30 26 26 27 27 18 18 17 13 11
27 28 29 30 32 34 36 38 41 46 46 49 45 35 25 34 11 19 12 20 16 11 7 13 10 10 13 13 16 24 25 21 23 27 30 31 28 26 26 27 26 26 21 20 19 13 13
26 28 29 30 32 34 37 39 42 48 50 50 41 29 27 30 4 20 12 23 15 6 6 14 18 12 26 36 13 14 27 21 25 31 31 32 29 24 28 27 24 25 22 19 16 12 15
26 27 28 30 32 35 40 44 46 49 50 47 31 24 31 17 13 15 21 20 12 2 5 17 20 25 28 23 18 11 11 19 23 26 19 31 30 25 26 27 23 22 20 20 19 16 16
25 26 28 30 32 35 40 44 46 49 49 39 26 20 30 20 17 19 23 16 3 4 5 16 23 24 24 22 19 15 6 9 11 24 22 29 22 23 22 20 22 20 18 15 18 14 15
24 25 27 30 32 35 39 43 46 48 48 37 23 19 24 16 17 28 20 8 3 6 18 20 29 17 19 22 20 21 5 16 15 8 20 23 30 19 15 21 24 23 17 11 13 13 15
22 24 26 29 31 34 38 42 44 47 46 36 16 16 25 17 25 21 16 5 7 15 17 21 20 14 17 20 13 24 13 12 21 24 11 14 18 21 22 27 22 26 23 16 21 18 18
21 23 25 28 29 32 37 41 42 45 45 32 16 13 30 31 28 21 5 9 7 13 18 20 19 15 14 19 9 12 16 17 15 20 11 9 15 23 18 22 25 21 23 28 19 19 17
20 22 24 27 28 30 35 39 41 44 44 23 16 9 29 32 24 12 7 9 8 13 15 16 16 13 16 18 15 13 15 16 16 20 16 10 9 16 19 11 21 22 23 21 19 18 20
20 21 23 25 26 28 31 35 39 42 43 23 11 4 27 30 11 8 8 7 8 13 15 12 15 13 15 17 13 10 12 6 17 18 15 14 7 12 11 15 18 17 13 21 22 15 15
19 20 22 23 24 26 28 31 35 38 42 19 10 4 22 21 10 6 8 9 5 14 15 13 12 12 15 14 8 9 11 11 11 11 10 10 6 6 12 6 13 14 19 22 15 21 18
18 19 21 21 22 24 26 29 33 35 31 18 6 4 12 16 6 6 7 10 7 11 12 12 12 12 17 11 6 10 12 9 14 9 9 8 5 7 12 8 7 8 6 14 15 20 21
17 18 20 20 21 22 24 26 29 33 26 19 5 5 5 8 8 11 11 9 11 7 10 11 7 15 15 15 10 9 12 13 14 7 3 2 4 7 6 11 14 14 11 10 10 11 16
16 17 19 19 20 20 21 24 25 29 22 16 6 3 4 4 6 11 10 10 12 14 10 8 9 15 17 15 13 8 15 17 18 8 5 7 6 9 9 15 12 16 16 13 12 15 17
16 16 17 19 18 19 18 19 22 24 21 9 3 4 8 8 9 10 6 9 12 12 14 11 13 18 17 15 14 16 18 16 9 11 16 9 8 11 15 11 11 15 16 16 15 12 11
17 16 17 17 18 17 17 17 17 19 18 8 9 7 6 10 7 8 8 13 15 14 6 13 17 17 16 15 15 18 17 17 18 19 17 14 6 8 10 1 9 13 13 15 13 9 7
17 17 16 17 18 17 16 16 16 14 11 8 3 6 3 7 9 11 17 13 14 15 17 17 15 15 15 17 18 19 20 19 18 17 15 15 12 7 9 10 8 3 2 3 8 12 3
17 17 18 17 17 17 16 16 15 13 12 10 5 3 2 6 10 14 13 16 19 17 16 17 15 11 12 14 16 16 14 15 12 12 11 13 12 9 5 7 13 17 4 1 5 10 9
18 18 18 18 17 18 16 15 16 14 13 13 11 11 5 4 8 19 18 17 15 16 16 16 13 15 12 10 11 12 13 17 9 5 6 8 10 11 12 11 6 8 6 2 2 9 12
19 18 18 18 17 18 17 16 16 16 15 13 14 12 8 4 13 14 14 17 18 16 14 18 15 12 9 12 12 14 15 17 18 20 18 11 11 14 13 13 14 12 10 3 4 3 4
19 18 18 19 19 19 18 17 16 15 15 14 18 16 11 3 10 23 20 18 18 16 16 18 14 13 10 9 11 12 11 13 15 16 16 16 12 12 14 17 19 10 5 5 6 3 2
18 17 18 17 18 18 18 17 17 15 18 16 21 16 13 11 11 32 36 34 30 33 16 13 17 22 7 5 7 7 13 13 20 15 17 16 15 13 12 7 5 7 8 2 2 1 4

GFSGBSN_925_spd_309.txt.gz
Wind_Speed
27 28 29 29 30 31 32 33 34 36 38 37 37 36 35 32 34 35 29 31 28 29 29 22 18 13 5 3 10 17 23 16 4 14 20 10 9 7 16 12 13 18 17 18 21 22 24
28 29 30 30 31 31 32 34 35 37 37 37 38 36 34 31 35 31 30 28 30 32 27 20 16 7 2 4 7 20 24 15 8 12 12 13 8 13 11 15 17 9 16 19 17 19 23
29 30 30 30 31 32 34 35 35 36 36 36 37 37 34 30 35 29 29 31 33 27 19 16 11 2 5 13 17 25 27 26 26 18 10 22 24 17 2 18 11 15 16 15 17 20 12
29 30 30 31 32 34 35 36 35 36 37 37 36 36 36 34 31 27 31 35 24 24 12 12 8 5 6 14 21 29 31 31 31 32 33 26 28 20 21 10 16 17 11 15 24 9 15
29 29 30 31 32 33 34 36 38 38 39 39 35 36 38 37 24 26 31 34 25 10 14 11 2 4 8 23 30 36 29 20 25 28 34 27 20 18 18 16 13 13 19 19 10 11 6
28 28 29 30 31 32 34 36 41 43 44 39 36 36 37 37 23 28 29 24 19 6 18 4 9 3 5 16 32 31 34 33 18 14 20 16 12 13 13 13 21 17 15 9 10 15 11
27 28 29 30 31 33 34 36 40 44 44 38 35 36 36 34 24 29 30 10 7 6 8 6 14 5 9 27 34 25 28 28 11 16 18 15 12 19 27 25 20 13 14 13 9 10 16
27 28 29 31 32 33 34 36 41 45 44 38 33 34 35 34 18 26 27 12 12 4 9 10 7 6 19 24 22 17 32 15 20 19 20 15 19 28 25 17 18 13 19 19 9 20 13
27 29 30 31 31 33 35 36 41 44 44 39 30 32 36 34 10 26 19 23 17 10 3 8 18 12 18 19 11 25 21 21 12 18 18 22 25 23 19 20 17 20 20 20 17 13 13
27 29 30 32 32 34 37 39 43 44 43 39 28 29 34 31 6 25 6 28 19 7 2 10 17 6 13 13 11 24 28 19 8 15 16 18 24 22 21 24 19 19 25 22 21 14 12
27 29 30 32 33 36 41 42 44 44 43 39 27 28 31 20 17 7 23 29 18 1 4 17 16 18 12 17 17 22 31 11 14 18 16 20 18 15 25 25 22 24 15 18 22 18 12
26 27 30 32 34 38 41 42 44 44 43 39 27 24 27 25 25 25 36 27 3 4 4 12 19 23 14 15 15 17 20 21 7 11 13 8 17 11 21 21 23 23 17 18 15 16 14
24 26 29 31 33 37 41 43 44 45 43 39 28 18 22 14 15 38 34 8 4 6 14 14 25 20 14 16 16 19 25 25 17 13 15 21 9 14 17 17 16 16 17 12 12 12 11
24 26 28 31 32 35 40 43 43 46 43 37 28 15 27 33 36 36 13 6 10 12 14 17 19 17 10 19 14 15 11 19 18 19 12 10 9 9 10 9 17 14 18 10 8 5 13
23 24 27 29 31 34 39 42 43 45 43 36 26 8 32 38 30 23 5 7 3 9 13 16 14 12 8 17 15 10 5 15 16 17 12 10 9 24 16 19 1 9 14 10 7 5 2
22 23 26 28 30 34 37 40 41 43 43 35 21 4 29 34 22 15 6 10 5 12 11 14 14 13 16 17 13 13 11 9 16 14 8 10 10 10 18 14 14 12 7 3 2 5 5
21 23 24 27 30 32 35 39 40 42 43 34 12 3 25 25 16 5 5 6 4 13 14 12 12 8 15 17 15 12 5 5 14 13 8 6 5 14 10 14 17 12 9 9 6 3 4
20 22 23 25 28 30 33 37 37 38 44 35 13 4 21 21 6 3 3 10 8 12 8 9 8 11 12 16 13 11 12 13 17 12 9 5 3 9 10 11 18 14 18 16 5 7 4
20 21 23 24 26 29 31 34 35 35 36 21 5 2 10 17 3 4 6 9 8 9 10 12 7 9 13 12 9 15 14 14 19 16 5 7 5 9 11 8 14 9 20 19 14 8 5
20 20 21 22 25 27 29 32 34 35 30 20 3 4 4 4 4 6 5 5 10 10 8 12 9 10 13 10 14 12 16 12 18 20 10 4 3 2 3 8 9 13 20 16 12 3 12
20 19 19 20 23 25 26 28 30 32 26 14 5 3 4 4 5 11 6 9 14 12 7 7 6 14 13 12 12 8 14 16 16 12 12 10 7 12 10 17 17 16 16 14 8 11 5
18 18 18 19 21 21 23 24 27 30 22 16 3 3 4 4 9 9 8 9 11 12 15 14 13 16 12 10 10 14 12 10 11 12 8 10 6 12 14 12 8 11 16 13 9 12 10
17 17 18 19 19 19 20 21 21 23 20 6 10 9 1 5 6 6 7 15 16 17 5 16 15 15 11 9 7 7 8 12 16 17 16 13 8 8 13 12 15 7 2 7 8 8 7
16 16 17 17 18 18 18 19 19 18 15 11 9 6 2 4 4 7 16 14 17 18 15 15 15 15 10 16 9 8 11 13 16 17 13 15 12 5 8 9 3 5 9 5 3 4 5
16 16 17 17 17 17 18 17 18 16 15 13 12 3 2 4 5 12 13 16 15 11 11 18 13 12 13 9 9 8 8 6 10 14 8 10 9 5 3 7 11 15 4 4 2 1 4
18 17 18 17 17 17 17 17 16 16 14 13 12 9 4 3 4 12 15 10 10 13 9 12 11 22 11 4 3 3 4 8 6 10 22 16 8 5 3 3 3 4 7 3 2 4 8
17 16 17 17 16 17 16 16 16 15 14 12 10 10 6 4 8 6 7 9 4 5 7 13 10 12 6 2 5 7 12 9 7 11 11 9 7 8 6 3 4 16 22 7 3 5 5
17 17 16 16 16 16 15 16 15 15 14 12 13 16 13 3 10 12 10 7 13 9 11 10 7 3 3 2 4 4 4 6 6 6 4 3 3 3 4 5 7 21 14 9 9 9 3
17 16 16 16 16 15 16 16 16 15 16 12 12 18 18 8 10 32 31 27 21 17 6 2 5 6 3 3 3 5 9 4 10 7 7 7 3 3 4 5 12 9 13 9 8 11 18